FALCON 9 DEB, 52893

Orbit data source: Space-Track

FALCON 9 DEB, 52893 is space debris in LEO originally from a launch on Sun, 19 Jun 2022 UTC launched from the Air Force Eastern Test Range (AFETR). Debris objects in space refer to the collection of defunct objects orbiting the Earth. Examples of debris include non-operational satellites, rocket bodies, and fragments generated from explosions, collisions, or faulty payload assembly.

Loading next visibility...
Identifier
52893, 2022-064F
Orbit
LEO
Country
Flag of USUS
Related business
Manufacturer
SpaceX/Seattle
Mission
Spacecraft
Bus & Motor
Unknown
Mass
~50 kg wet, ~50 kg dry
Launch date (UTC)
2022-06-19 (3 years ago)
Launch vehicle
Unknown
Launch site
Air Force Eastern Test Range (AFETR)
Object type
Payload
Rocket body
Debris
Shape & HBR
Cyl, 3.5 m
Radar Cross Section
0.110 m², Medium (>0.1 m² and < 1m²)

Expand to show TLE details & history
Last TLE update: 21 hours ago

TLE from 21 hours ago
0 FALCON 9 DEB
1 52893U 22064F   25258.34351999  .00009416  00000-0  30956-3 0  9992
2 52893  52.9895 180.1770 0007845  24.9495 335.1883 15.32226053137526
Epoch: 2025-09-15T08:14Z
TLE epoch observation values (Epoch: 2025-09-15T08:14:40.127Z)
Latitude
0.00006°
Longitude
61.96032°
Altitude
465.179 km
Speed
7.638 km/s
True Right ascension
12h 00m 42s
True Declination
0° 00' 00"
Sunlit
Object was in daylight at epoch
Visualization orbit readout
Latitude
Unknown
Longitude
Unknown
Altitude
Unknown
Speed
Unknown
Apparent Right ascension
Unknown
Apparent Declination
Unknown
Sunlit
N/A
Visualization observer readout
Local Sidereal Time
21:51:39
Azimuth
Unknown
Elevation
Unknown
Doppler factor
Unknown
Orbital elements
Apogee altitude
474.828 km
Perigee altitude
464.085 km
Semi-major axis
6,847.594 km
Eccentricity
0.00078
Inclination
52.9895°
RAAN
180.177°
Arg. of periapsis
24.9495°
True anomaly
335.15054°
Mean anomaly
335.1883°
Eccentric anomaly
335.16942°
Mean motion
3.83033 °/min
Orbital period
93.99 mins
BSTAR
0.00030956
Loading maneuver chart data...
Computing Atmospheric mass density...
Loading historical data...
Loading historical data...
Loading historical data...
Loading historical data...
Loading historical data...
Loading historical data...
Loading historical data...
Other satellites on launch #64 in the year 2022 (2022-06-19 UTC)

Documentation

Showing up to 5 results
|